#timestamp,LO_Frequency,Hit,StdDev 
1616353215.7,286047001.7,N
1616353235.6,286046999.0,N
1616353255.4,286046997.8,N
1616353275.2,286046995.9,N
1616353295.1,286046995.0,N
1616353296.0,286046995.0,N
1616353315.8,286046995.6,N
1616353335.6,286046994.0,N
1616353355.5,286046994.5,N
1616353375.3,286046994.3,N
1616353395.2,286046994.7,N
1616353415.9,286046992.2,N
1616353435.7,286046995.9,N
1616353455.6,286046993.7,N
1616353475.4,286046996.0,N
1616353495.2,286046993.3,N
1616353515.1,286046995.4,N
1616353516.0,286046995.4,N
1616353535.8,286046995.4,N
1616353555.7,286046997.9,N
1616353575.5,286046998.3,N
1616353595.3,286047001.2,N
1616353615.2,286047002.4,N
1616353635.0,286047002.3,N
1616353635.9,286047002.3,N
1616353655.7,286047002.4,N
1616353675.6,286047001.1,N
1616353695.4,286046999.4,N
1616353715.3,286046999.3,N
1616353735.1,286046998.5,N
1616353736.0,286046998.5,N
1616353755.8,286046999.1,N
1616353775.7,286046998.1,N
1616353795.5,286047000.2,N
1616353815.3,286047000.3,N
1616353835.2,286047001.1,N
1616353855.0,286046999.7,N
1616353855.9,286046999.7,N
1616353875.8,286047001.6,N
1616353895.6,286047002.8,N
1616353915.4,286046999.9,N
1616353935.3,286046999.7,N
1616353955.1,286047001.5,N
1616353975.8,286047002.3,N
1616353995.7,286047002.2,N
1616354015.5,286047000.7,N
1616354035.4,286046998.7,N
1616354055.2,286046998.7,N
1616354075.0,286046996.5,N
1616354075.9,286046996.5,N
1616354095.8,286046997.7,N
1616354115.6,286046999.4,N
1616354135.4,286046997.3,N
1616354155.3,286046995.5,N
1616354175.1,286046996.4,N
1616354195.9,286046992.2,Y
1616354215.7,286046994.3,P
1616354235.5,286046993.9,N
1616354255.4,286046991.8,P
1616354275.2,286046992.2,N
1616354295.0,286046992.0,N
1616354295.9,286046992.0,Y
1616354315.8,286046996.6,P
1616354335.6,286046996.6,N
1616354355.5,286046999.5,N
1616354375.3,286046996.5,N
1616354395.1,286046997.0,N
1616354415.9,286046996.6,N
1616354435.7,286046994.9,Y
1616354455.5,286047000.4,P
1616354475.4,286047000.5,N
1616354495.2,286047002.5,N
1616354515.1,286047002.7,N
1616354516.0,286047002.7,N
1616354535.8,286047002.6,N
1616354555.6,286047000.0,N
1616354575.5,286046999.9,N
1616354595.3,286046998.4,N
1616354615.1,286047001.1,N
1616354635.9,286046998.2,N
1616354655.7,286046998.1,N
1616354675.6,286046998.2,N
1616354695.4,286046999.3,N
1616354715.2,286046999.6,N
1616354735.1,286046999.6,N
1616354736.0,286046999.6,N
1616354755.8,286046999.5,N
1616354775.6,286046998.7,N
1616354795.5,286046998.3,N
1616354815.3,286047001.1,N
1616354835.2,286046998.6,N
1616354855.9,286046998.8,N
1616354875.7,286046998.5,N
1616354895.6,286046998.9,N
1616354915.4,286046998.2,N
1616354935.2,286046998.9,N
1616354955.1,286046998.7,N
1616354956.0,286046998.7,N
1616354975.8,286046998.3,N
1616354995.6,286046999.1,N
1616355015.5,286046999.6,N
1616355035.3,286046999.1,N
1616355055.2,286046996.9,N
1616355075.9,286046999.5,N
1616355095.7,286046999.6,N
1616355115.6,286046997.4,Y
1616355135.4,286046999.5,P
1616355155.3,286046999.6,N
1616355175.1,286046999.4,N
1616355176.0,286046999.4,N
1616355195.8,286047001.1,Y
1616355215.7,286047000.1,P
1616355235.5,286047000.0,N
1616355255.3,286046998.5,P
1616355275.2,286046998.3,N
1616355295.0,286046998.2,N
1616355295.9,286046998.2,N
1616355315.8,286047000.8,N
1616355335.6,286047000.2,N
1616355355.4,286047000.8,N
1616355375.3,286047000.7,N
1616355395.1,286047001.0,N
1616355415.8,286047000.8,N
1616355435.7,286046998.8,N
1616355455.5,286047000.9,N
1616355475.4,286047000.8,N
1616355495.2,286047001.1,N
1616355515.0,286047000.4,N
1616355515.9,286047000.4,N
1616355535.8,286046999.0,N
1616355555.6,286046999.6,N
1616355575.4,286046999.6,N
1616355595.3,286046999.0,N
1616355615.1,286046997.0,Y
1616355635.9,286046998.3,P
1616355655.7,286047000.3,N
1616355675.5,286047000.5,N
1616355695.4,286047000.7,N
1616355715.2,286047001.6,N
1616355735.0,286047002.6,N
1616355735.9,286047002.6,N
1616355755.8,286047002.4,N
1616355775.6,286047002.5,N
1616355795.5,286046999.8,N
1616355815.3,286047002.2,N
1616355835.1,286047002.0,N
1616355855.9,286047004.1,Y
1616355875.7,286047002.3,P
1616355895.5,286047001.9,P
1616355915.4,286046999.7,N
1616355935.2,286047002.4,N
1616355955.1,286047002.2,N
1616355956.0,286047002.2,N
1616355975.8,286047001.6,N
1616355995.6,286047005.2,Y
1616356015.5,286047005.2,P
1616356035.3,286047006.4,P
1616356055.1,286047005.4,N
1616356075.9,286047005.5,Y
1616356095.7,286047001.0,P
1616356115.6,286046998.1,N
1616356135.4,286046998.8,N
1616356155.2,286046998.5,N
1616356175.1,286047002.5,N
1616356176.0,286047002.5,N
1616356195.8,286047001.4,N
1616356215.6,286047003.6,N
1616356235.5,286047002.6,N
1616356255.3,286047000.9,N
1616356275.2,286047004.3,N
1616356295.9,286047001.8,N
1616356315.7,286047000.5,N
1616356335.6,286047000.1,N
1616356355.4,286046998.3,N
1616356375.2,286046998.4,N
1616356395.1,286046998.1,N
1616356396.0,286046998.1,N
1616356415.8,286046998.9,N
1616356435.6,286047000.9,N
1616356455.5,286047000.6,N
1616356475.3,286047000.0,N
1616356495.2,286047001.2,N
1616356515.9,286047001.2,N
1616356535.7,286047002.5,N
1616356555.6,286047000.1,N
1616356575.4,286046999.7,N
1616356595.2,286047000.0,N
1616356615.1,286046998.6,N
1616356616.0,286046998.6,N
1616356635.8,286046997.0,N
1616356655.7,286046998.1,N
1616356675.5,286047001.0,N
1616356695.3,286047001.9,N
1616356715.2,286047000.2,N
1616356735.0,286047000.4,N
1616356735.9,286047000.4,N
1616356755.7,286047000.5,N
1616356775.6,286046999.8,N
1616356795.4,286047000.5,N
